RH
37 29 21 19 21 19 11 8 27 42 57 46 51 59 53 48 62 63 73 79 76 80 78 95 99 75 86 86 80 82 70 70 59 49 56 69 68 63 63 58 60 71 83
40 35 27 30 21 22 18 10 9 35 59 51 46 51 53 49 52 53 61 56 68 88 70 72 86 92 98 100 91 91 95 79 69 60 54 56 68 70 68 64 66 68 48
47 38 31 34 34 23 21 20 12 10 33 48 59 61 42 40 41 35 42 37 42 36 58 69 78 86 95 94 100 100 99 81 74 66 58 53 54 59 75 64 50 44 50
70 40 35 34 39 40 25 25 22 10 10 27 41 39 55 49 43 46 47 100 48 30 37 59 87 70 77 96 100 99 92 75 75 80 77 68 54 51 51 50 51 49 57
82 53 41 38 38 42 44 30 24 23 11 12 26 34 37 45 51 53 68 50 50 36 39 59 85 70 69 82 88 84 78 70 83 60 56 49 62 53 49 62 63 53 55
87 75 51 46 38 42 45 52 32 25 22 11 14 32 45 48 65 69 64 71 78 41 41 61 100 55 48 52 66 69 56 48 45 65 73 56 44 41 46 48 44 49 43
79 96 81 47 44 46 44 49 46 33 25 21 12 14 34 63 61 83 81 76 66 61 46 72 79 57 57 41 37 40 51 68 84 76 75 94 88 74 79 59 52 41 37
61 93 100 55 51 48 48 41 41 38 33 28 25 17 12 27 66 78 62 36 39 45 49 63 71 62 48 53 54 59 62 90 83 67 76 53 66 59 54 44 34 31 30
63 71 84 80 48 48 42 43 39 42 40 40 38 34 30 19 13 20 52 76 65 70 95 80 97 98 98 90 82 99 97 100 84 39 29 30 32 31 23 20 19 16 16
79 60 62 57 52 44 38 43 46 41 35 33 34 38 39 34 34 25 17 16 40 80 100 100 44 54 62 70 62 10 10 10 11 12 12 13 13 13 14 13 12 14 14
94 89 59 58 50 48 45 42 44 46 40 38 35 33 34 38 40 36 35 32 25 21 18 17 16 15 14 13 14 15 14 13 14 14 11 8 7 7 7 7 6 6 6
68 100 88 74 53 50 47 50 43 50 42 43 39 38 33 30 31 35 38 38 38 37 38 38 38 36 35 33 34 33 31 28 25 23 22 19 17 17 17 17 16 15 14
91 97 100 100 87 58 54 49 51 46 51 46 44 39 38 36 40 30 29 32 35 40 46 47 44 42 41 41 41 40 40 41 43 45 45 41 39 39 37 31 24 21 21
91 100 91 100 100 91 68 64 55 56 59 61 54 49 44 42 41 47 41 34 28 29 30 30 32 39 45 47 47 46 47 48 48 48 49 51 51 49 48 47 47 45 37
96 100 99 94 100 100 96 81 68 60 62 69 67 62 56 52 51 47 45 46 40 35 29 27 27 28 29 30 34 36 41 42 44 48 52 58 59 61 58 59 60 56 50
98 100 100 93 92 100 100 99 95 81 68 69 74 77 67 59 56 52 55 55 51 50 44 44 40 37 34 33 34 34 34 35 37 36 38 41 45 47 57 63 63 65 66
100 97 100 98 99 93 100 100 100 100 88 78 79 79 85 80 70 62 56 60 60 65 58 61 69 66 62 58 52 48 42 50 57 70 80 74 62 64 46 52 71 59 58
100 100 100 96 98 100 95 96 100 100 100 99 85 84 81 86 94 92 81 68 78 68 60 55 60 66 60 55 59 77 99 100 88 86 65 65 66 72 82 71 77 77 70
97 100 100 100 96 87 100 98 88 75 89 95 100 92 96 90 100 100 98 93 75 72 60 55 54 57 70 100 97 82 80 76 68 66 71 63 45 40 38 44 43 45 42
76 94 100 100 100 99 83 93 87 76 80 97 100 95 66 75 94 100 100 100 83 73 61 51 51 51 49 43 40 40 46 52 43 39 35 31 30 27 29 30 32 32 30
83 90 91 100 100 100 100 95 84 72 61 79 100 94 77 90 100 100 100 100 100 84 76 71 73 68 64 56 48 53 50 41 34 32 30 27 25 23 22 22 22 23 24
57 89 82 100 100 100 100 100 81 74 60 55 69 99 100 100 100 100 100 100 100 100 97 93 100 94 100 82 61 58 45 42 38 31 24 24 22 22 21 19 19 20 18
51 78 76 87 98 100 100 100 100 93 81 62 62 81 100 100 100 100 100 100 100 93 100 98 90 83 55 49 46 40 40 31 28 25 23 21 19 17 14 9 8 8 10
75 59 73 72 85 100 100 100 94 92 74 70 70 84 100 100 100 100 100 100 100 99 94 79 63 55 48 36 32 29 29 25 26 25 22 20 13 7 7 7 7 7 7
88 84 68 68 87 100 100 100 95 82 71 71 82 95 100 100 100 98 99 100 100 100 99 73 66 47 40 33 31 27 26 25 23 22 27 10 8 8 8 9 10 10 11
69 70 62 67 77 85 100 90 93 78 75 74 71 70 85 99 98 100 100 100 100 99 82 79 58 44 35 34 31 28 26 24 24 24 12 8 12 11 12 12 12 14 14
Wind_Speed
21 23 26 24 26 29 32 32 16 16 13 13 15 11 11 15 11 17 17 22 19 21 23 22 24 21 21 24 22 21 19 16 16 14 13 15 15 16 15 16 18 19 21
15 19 21 26 26 26 29 31 27 11 11 12 16 15 14 14 14 10 13 13 13 15 22 29 27 28 23 20 17 20 18 15 14 12 10 12 12 14 16 15 14 14 13
11 14 16 23 25 25 25 28 29 22 10 15 16 12 14 12 11 12 10 12 10 9 14 20 22 23 23 21 17 15 21 17 16 13 15 15 16 15 17 16 17 17 22
7 9 13 17 19 24 24 24 26 27 19 12 14 15 14 16 14 9 9 16 5 3 7 10 16 17 20 26 23 26 19 16 17 16 17 16 16 18 23 24 20 26 26
5 5 11 12 16 17 20 23 22 23 24 17 14 13 13 13 14 11 10 14 6 4 6 9 12 15 20 27 29 27 25 22 20 20 24 25 27 25 25 28 29 34 38
6 4 7 7 13 12 15 19 20 18 20 22 17 17 18 17 13 10 9 11 16 10 10 9 16 13 11 16 20 22 22 23 24 21 23 26 27 28 30 32 37 40 43
6 8 6 6 5 11 10 11 16 18 16 17 20 18 16 14 10 10 10 12 17 20 15 12 14 17 18 16 17 18 22 27 29 31 32 33 35 36 39 38 41 45 45
11 9 12 8 2 5 7 11 13 15 16 18 17 16 16 12 9 11 12 14 18 20 19 19 17 20 20 20 22 26 30 33 37 39 39 36 39 41 42 43 45 46 47
14 11 10 10 6 2 3 7 11 12 13 13 13 15 13 11 9 6 10 14 16 14 21 24 24 28 31 31 32 33 36 39 38 36 34 35 37 38 39 40 42 43 43
16 16 13 11 8 5 0 3 6 9 10 10 11 9 9 11 8 6 6 5 5 9 20 32 22 20 21 20 27 24 22 23 24 25 28 29 32 33 32 34 36 34 32
17 18 18 16 13 9 7 3 2 3 4 6 7 7 6 6 6 6 5 3 2 3 6 6 5 6 8 10 10 10 9 10 10 12 14 16 18 20 22 23 24 23 23
24 20 21 20 17 13 13 9 8 4 2 4 4 3 3 4 3 1 2 3 3 3 3 4 5 7 9 10 11 12 13 13 14 15 16 17 17 18 19 20 22 25 26
27 23 21 22 22 19 17 16 12 11 6 3 2 2 1 2 3 2 1 5 7 8 9 9 10 11 11 12 13 14 15 16 17 19 21 21 22 22 24 25 26 26 25
30 28 26 25 25 24 22 21 20 16 13 9 5 3 5 8 10 5 5 7 6 9 11 11 14 16 17 18 19 20 21 22 23 24 25 26 27 27 29 29 30 31 32
33 33 32 28 28 27 27 25 25 24 20 16 11 9 7 10 11 13 13 14 11 10 9 11 14 16 18 21 23 25 26 27 29 30 31 33 33 34 35 35 36 37 38
34 35 33 34 31 29 30 30 29 29 27 25 21 17 13 12 14 17 19 17 17 16 17 19 19 20 20 23 24 28 29 31 34 36 37 39 41 41 41 44 45 45 46
38 38 36 36 36 34 33 31 32 33 32 31 31 28 24 20 20 20 21 21 21 20 22 23 25 27 28 28 28 29 32 34 37 39 42 44 45 47 49 46 52 55 56
40 40 41 40 37 37 39 39 37 36 36 36 36 35 34 29 28 25 23 26 26 27 26 28 28 29 32 32 34 38 41 43 46 48 51 53 55 56 55 57 63 61 61
45 44 43 42 41 40 41 41 42 38 39 40 41 39 37 37 35 35 33 29 28 29 32 31 32 32 34 36 41 44 47 50 53 58 60 62 62 66 67 70 72 74 77
50 49 47 45 44 45 43 42 43 41 41 43 41 42 38 39 39 39 38 34 36 35 36 38 38 37 40 42 47 49 52 55 61 62 66 69 72 75 75 76 76 79 82
54 53 49 47 46 45 45 44 44 43 37 41 44 46 43 40 42 45 45 40 38 41 41 41 44 45 47 50 54 56 61 65 66 70 72 76 78 78 79 83 85 89 91
58 56 53 50 49 48 48 46 47 45 43 42 45 48 50 48 47 46 47 43 42 43 45 47 48 50 52 56 61 65 68 69 73 77 76 75 78 81 85 88 92 95 95
59 58 58 55 51 48 51 51 50 49 46 45 48 51 51 51 48 47 48 47 48 47 46 48 51 53 59 64 68 70 71 75 77 76 78 80 84 87 89 88 90 91 92
59 62 61 58 55 51 51 53 53 51 50 49 48 49 52 51 51 53 53 51 50 51 52 55 59 61 64 68 71 75 77 76 72 77 82 84 84 82 82 81 80 81 82
63 61 61 61 57 55 54 55 55 55 49 49 50 51 54 57 56 55 53 55 54 56 57 61 63 65 71 75 79 80 78 76 77 79 82 81 80 79 76 75 74 74 74
68 65 65 63 62 60 58 57 57 55 51 49 51 49 50 53 55 54 55 56 57 60 64 65 67 73 79 82 85 84 79 79 83 84 80 76 74 72 71 71 70 70 71
Wind_Direction
0 15 23 31 40 45 56 62 100 123 122 129 139 146 158 166 183 217 220 221 229 245 244 239 236 247 248 249 253 244 249 256 261 272 282 269 257 257 256 254 254 247 250
0 13 22 32 41 45 50 61 72 123 154 141 144 156 176 183 184 188 194 216 211 219 236 237 237 242 244 249 246 245 240 248 252 265 281 271 260 253 244 241 239 234 249
353 7 20 33 38 41 49 51 64 85 151 177 170 163 159 172 184 199 205 194 225 225 226 239 245 247 246 232 233 237 239 252 257 267 274 273 268 259 244 242 236 248 274
327 356 4 28 39 41 45 55 55 63 87 147 181 178 177 186 182 184 172 186 254 279 248 256 254 251 254 241 237 240 242 256 267 268 271 271 271 279 261 237 245 285 284
289 333 347 15 33 45 47 49 56 60 67 100 148 160 169 182 185 185 184 193 221 218 239 239 251 274 247 249 246 246 261 270 267 275 273 268 261 271 274 269 261 279 278
276 291 335 3 30 43 54 51 55 60 64 72 103 157 145 141 147 174 187 196 230 232 242 230 247 268 255 254 251 253 263 258 261 271 277 276 272 270 275 274 269 272 274
260 261 296 308 41 34 39 57 55 56 64 68 79 94 136 152 167 208 207 216 222 219 219 231 249 260 264 259 255 252 261 266 276 275 276 275 280 272 278 273 274 273 275
257 249 262 283 268 50 49 65 62 60 60 61 60 68 85 111 177 222 201 194 202 211 224 229 248 250 253 254 257 263 264 267 275 277 275 274 279 278 281 280 279 279 279
259 237 245 264 276 63 49 71 71 67 75 71 68 70 78 96 115 159 224 223 234 243 245 249 269 265 263 262 269 276 275 272 276 278 278 279 278 277 276 278 278 280 279
254 254 246 249 251 237 142 124 72 63 68 75 85 92 84 80 86 91 91 118 190 241 246 259 269 267 268 274 276 281 283 285 286 285 280 280 281 279 280 281 283 279 278
252 254 257 249 243 240 230 229 167 80 75 60 57 65 89 101 100 89 84 91 131 202 223 237 252 257 257 258 265 271 276 285 293 302 306 305 303 303 299 292 289 289 293
252 255 248 254 248 239 237 234 234 259 47 50 48 58 79 94 83 145 203 221 233 258 287 297 284 276 273 278 286 292 297 299 300 305 305 305 302 299 297 299 300 300 300
247 250 252 248 250 245 238 237 240 241 254 251 14 339 306 267 343 63 341 267 261 261 262 262 268 277 283 286 291 295 296 300 303 305 304 300 299 301 305 306 303 298 292
244 251 244 243 247 248 244 242 238 243 246 254 252 281 260 254 279 288 323 328 316 290 275 280 275 275 277 280 283 285 288 291 292 294 295 296 297 296 296 293 291 291 291
243 247 243 243 241 243 248 247 245 245 248 252 259 260 281 267 272 271 282 302 303 299 285 290 295 293 289 283 282 281 283 285 288 289 289 291 290 290 288 287 287 287 286
244 247 245 242 244 241 247 246 250 248 249 251 257 264 264 269 275 274 274 283 291 297 292 297 296 294 298 295 289 284 285 289 292 291 290 289 288 284 284 286 285 284 281
247 245 248 246 244 242 241 244 249 254 250 255 256 261 267 269 270 276 280 271 287 279 287 290 290 294 294 296 293 294 292 290 293 293 293 291 288 289 288 286 285 281 278
244 245 248 249 249 246 245 246 247 250 253 253 256 261 269 271 270 269 281 275 281 281 287 293 290 289 293 296 296 294 290 289 293 291 292 293 291 289 284 284 287 283 276
243 245 251 251 250 249 248 249 251 252 255 256 257 260 267 268 268 269 279 283 284 281 287 293 289 289 290 285 285 288 288 287 289 290 291 290 289 286 285 283 282 281 282
244 244 247 252 252 251 252 248 250 254 259 260 257 259 266 269 269 267 276 281 284 283 287 289 289 288 291 293 294 294 293 292 293 293 291 290 288 288 285 282 280 279 276
242 245 246 249 251 253 252 249 252 252 258 260 260 260 263 266 266 268 274 279 281 286 289 289 290 292 294 296 298 297 295 296 295 295 294 291 288 286 285 282 278 275 274
240 243 246 248 251 252 253 253 254 257 259 259 261 261 263 264 267 271 274 278 281 281 286 288 291 290 292 294 295 296 295 297 296 294 292 290 288 288 288 284 279 276 273
241 242 245 246 248 251 255 256 256 257 260 265 265 260 265 265 269 276 274 276 281 282 285 285 288 288 291 295 297 298 298 299 298 294 292 292 290 287 285 284 280 277 274
245 242 244 247 248 251 253 254 255 256 262 260 264 265 264 265 268 276 276 276 282 284 286 285 286 293 296 299 299 300 300 300 298 301 301 299 296 294 292 289 286 282 279
244 244 245 245 248 252 253 254 257 256 256 257 261 264 267 269 270 275 277 278 281 280 281 286 292 296 298 299 301 302 301 299 301 304 305 301 300 299 296 293 292 291 290
247 247 247 246 246 248 252 253 256 257 259 256 257 260 267 270 273 277 276 277 278 279 286 291 294 297 300 301 303 304 302 302 306 306 305 304 304 301 300 300 300 299 297